Preview of NWS' New Version of Forecast
This preview is not operational and should not be used for support decisions.
Latest weather observations around

Livermore, Livermore Municipal Airport (KLVK)

Using English Units (Switch to International System of Units)
Date/ Time (PDT) Wind (mph) Vis. (mi) Weather Sky Cond. Temp (°F) Rel. Humidity Wind Chill (°F) Heat Index (°F) Pressure Precip. (in)
Air Dwpt 6 hour Altimeter (inHg) Sea level (inHg) 1 hr 3 hr 6 hr
Max Min
Mar 25 02:53 Calm 10 Clear CLR 48 42     80%     30.08 30.07      
Mar 25 01:53 E 5 10 Clear CLR 47 42     83% 45   30.1 30.09      
Mar 25 00:53 ENE 7 10 Clear CLR 48 42     80% 45   30.11 30.11      
Mar 24 23:53 ENE 3 10 Clear CLR 51 42     71%     30.13 30.12      
Mar 24 22:53 Calm 10 Clear CLR 53 44     71%     30.14 30.14      
Mar 24 21:53 3 10 Clear CLR 51 43     74%     30.14 30.14      
Mar 24 20:53 Calm 10 Clear CLR 52 43     71%     30.12 30.12      
Mar 24 19:53 ENE 7 10 Clear CLR 55 45     69%     30.11 30.11      
Mar 24 18:53 NE 7 10 Clear CLR 59 46     62%     30.13 30.13      
Mar 24 17:53 NE 9 10 Clear CLR 61 47     60%     30.13 30.13      
Mar 24 16:53 ENE 10 10 Clear CLR 61 48     62%     30.13 30.13      
Mar 24 15:53 E 8 10 Clear CLR 60 49     67%     30.15 30.15      
Mar 24 14:53 NE 9 10 Clear CLR 59 47     64%     30.17 30.17      
Mar 24 13:53 E 9 10 Clear CLR 60 45     57%     30.19 30.19      
Mar 24 12:53 NNE 8 10 Clear CLR 59 45     60%     30.21 30.21      
Mar 24 11:53 Calm 10 Clear CLR 58 47     67%     30.23 30.22      
Mar 24 10:53 S 3 10 Clear CLR 51 43     74%     30.24 30.23      
Mar 24 09:53 Calm 10 Clear CLR 48 40     73%     30.24 30.24      
Mar 24 08:53 Calm 10 Clear CLR 43 40     89%     30.23 30.23      
Mar 24 07:53 Calm 10 Clear CLR 39 37     93%     30.22 30.22      
Mar 24 06:53 E 5 10 Clear CLR 38 35     89% 34   30.2 30.2      
Mar 24 05:53 Calm 10 Clear CLR 40 37     89%     30.19 30.19      
Mar 24 04:53 Calm 10 Clear CLR 39 36     89%     30.19 30.19      
Mar 24 03:53 ENE 3 10 Clear CLR 40 38     93% 38   30.2 30.2      
Mar 24 02:53 Calm 10 Clear CLR 40 38     93%     30.21 30.21      
Mar 24 01:53 ENE 3 10 Clear CLR 41 38     89% 39   30.22 30.22      
Mar 24 00:53 Calm 10 Clear CLR 44 41     89%     30.23 30.23      
Mar 23 23:53 Calm 10 Clear CLR 46 42     86%     30.24 30.24      
Mar 23 22:53 Calm 10 Clear CLR 47 42     83%     30.23 30.23      
Mar 23 21:53 S 3 10 Clear CLR 49 43     80% 48   30.23 30.22      
Mar 23 20:53 WSW 8 10 Clear CLR 50 43     77%     30.22 30.22      
Mar 23 19:53 WSW 7 10 Clear CLR 50 42     74%     30.2 30.19      
Mar 23 18:53 WSW 10 10 Clear CLR 54 43     66%     30.19 30.19      
Mar 23 17:53 WSW 10 10 Clear CLR 57 43     59%     30.18 30.18      
Mar 23 16:53 WSW 16 10 Mostly Clear FEW030 58 44     60%     30.18 30.18      
Mar 23 15:53 WSW 15 10 Mostly Clear FEW038 60 45     57%     30.18 30.17      
Mar 23 14:53 W 14 10 Mostly Clear FEW050 60 43     53%     30.18 30.18      
Mar 23 13:53 W 8 10 Partly Cloudy SCT049 58 42     55%     30.18 30.17      
Mar 23 12:53 W 6 10 Partly Cloudy SCT040 59 44     58%     30.18 30.18      
Mar 23 11:53 W 6 10 Mostly Clear FEW030 58 45     62%     30.19 30.19      
Mar 23 10:53 W 10 10 Mostly Cloudy FEW016 BKN024 57 45     64%     30.19 30.19     0
Mar 23 09:53 SW 5 10 Mostly Cloudy FEW016 BKN024 BKN029 54 48     80%     30.18 30.17      
Mar 23 09:49 5 10 Mostly Cloudy FEW016 BKN024 BKN029 54 48     82%     30.17        
Mar 23 09:11 SW 3 9 Clear   53 49     86%     30.17        
Mar 23 08:53 W 3 8 Clear   52 49     89%     30.17 30.16      
Mar 23 07:53 Calm 7 Cloudy BKN023 OVC100 51 49     92%     30.15 30.14   0  
Mar 23 07:21 Calm 8 Cloudy BKN029 BKN036 OVC100 50 49     96%     30.14        
Mar 23 06:53 NNW 3 7 Cloudy BKN050 BKN075 OVC095 51 49     92%     30.13 30.13      
Mar 23 05:53 Calm 10 Cloudy OVC095 51 49     92%     30.12 30.12 0    
Mar 23 04:53 ESE 3 5 Light Rain and Fog/Mist OVC055 51 49     92%     30.11 30.11 0   0
Mar 23 03:53 SW 7 4 Light Rain and Fog/Mist OVC060 52 49     89%     30.13 30.12 0    
Mar 23 02:53 SSW 5 4 Light Rain and Fog/Mist FEW024 OVC055 53 51     93%     30.13 30.12 0    
Mar 23 02:00 SSW 5 4 Light Rain and Fog/Mist FEW025 FEW030 OVC050 53 51     93%     30.12   0    
Mar 23 01:53 SW 5 2.5 Light Rain and Fog/Mist FEW024 SCT043 OVC050 52 51     97%     30.12 30.12 0 0  
Mar 23 01:23 Calm 2.5 Rain and Fog/Mist BKN037 OVC044 53 51     93%     30.13   0    
Mar 23 00:53 Calm 4 Light Rain and Fog/Mist BKN037 OVC070 52 50     93%     30.13 30.13 0    
Mar 22 23:53 NE 3 7 Light Rain FEW032 BKN040 OVC055 53 51     93%     30.14 30.14 0    
Mar 22 22:53 E 3 10 Cloudy FEW033 SCT047 OVC090 53 51     93%     30.14 30.14     0
Mar 22 21:53 E 3 9 Mostly Cloudy FEW050 BKN095 54 51     90%     30.14 30.14 0    
Mar 22 20:53 SSE 5 10 Cloudy OVC055 55 50     83%     30.14 30.14 0    
Mar 22 19:53 Calm 10 Cloudy BKN030 OVC042 54 51     90%     30.14 30.14 0 0  
Mar 22 19:00 S 3 4 Light Rain and Fog/Mist FEW029 SCT038 OVC049 54 51     90%     30.14   0    
Mar 22 18:53 SSW 3 6 Light Rain and Fog/Mist SCT009 BKN019 OVC026 54 51     90%     30.14 30.14 0    
Mar 22 18:21 Calm 4 Light Rain and Fog/Mist SCT009 BKN019 OVC026 55 51     86%     30.14   0    
Mar 22 17:53 SW 3 2 Light Rain and Fog/Mist SCT009 BKN019 OVC026 54 51     90%     30.14 30.14 0    
Mar 22 16:53 E 3 4 Light Rain and Fog/Mist OVC030 55 51     86%     30.15 30.14 0   0
Mar 22 15:53 SW 5 6 Light Rain OVC038 56 49     77%     30.15 30.15 0    
Mar 22 14:53 SW 6 8 Light Rain FEW030 OVC044 57 50     77%     30.16 30.16 0    
Mar 22 13:53 W 3 9 Light Rain SCT031 OVC065 58 48     70%     30.17 30.17 0 0  
Mar 22 12:53 Calm 10 Mostly Cloudy BKN095 56 47     72%     30.18 30.18      
Mar 22 11:53 ENE 5 10 Mostly Cloudy BKN060 54 47     77%     30.18 30.18 0    
Mar 22 10:53 Calm 10 Cloudy OVC030 50 45     83%     30.2 30.2 0   0
Mar 22 09:53 Calm 6 Light Rain and Fog/Mist OVC036 48 45     89%     30.19 30.19 0    
Mar 22 08:53 Calm 8 Light Rain OVC041 47 44     90%     30.17 30.17 0    
Mar 22 07:53 W 5 7 Light Rain BKN060 OVC070 46 42     86% 44   30.17 30.16 0 0  
Mar 22 06:53 E 3 10 Cloudy OVC080 45 42     90% 44   30.15 30.15      
Mar 22 05:53 E 3 10 Cloudy OVC085 44 41     89% 43   30.15 30.15      
Mar 22 04:53 NE 3 10 Cloudy OVC100 44 41     89% 43   30.14 30.14      
Mar 22 03:53 E 3 10 Clear CLR 42 38     85% 40   30.15 30.14      
Mar 22 02:53 Calm 10 Clear CLR 43 39     86%     30.15 30.15      
Mar 22 01:53 Calm 10 Clear CLR 47 41     80%     30.16 30.16      
May 15 11:53 W 10 10 Clear CLR 63 50     63%     30.04 30.03      
May 15 10:53 WSW 10 10 Cloudy OVC022 62 51     67%     30.04 30.03      
May 14 08:53 W 8 10 Cloudy OVC017 56 51     84%     29.99 29.99      
May 14 04:53 W 9 10 Cloudy OVC015 53 51     93%     29.97 29.97      
May 13 18:53 WNW 16 10 Clear CLR 62 53     72%     29.95 29.95      
May 13 04:53 WNW 3 10 Clear CLR 52 51     97%     29.94 29.93      
May 12 21:53 WNW 10 10 Clear CLR 58 51     78%     29.91 29.91      
May 12 00:53 6 10 Clear CLR 69 34     27%     29.8 29.78      
May 11 19:53 N 10 10 Clear CLR 76        %     29.74 29.73      
Jun 12 05:48 SW 9 10 Mostly Cloudy SCT022 BKN027 54 48     82%     30.04        
Jun 11 19:53 SW 13 10 Clear   58 46     65%     29.95 29.95   0  
Jun 10 23:53   10 Clear CLR 54 46     74%     29.94 29.94 0    
Jun 10 19:53   10 Mostly Clear FEW028 60 48     64%     29.93 29.93   0  
Jun 09 21:53   10 Mostly Cloudy BKN022 56 47     72%     29.98 29.98      
Jun 09 15:53 W 17 10 Cloudy OVC039 68 47     47%     29.94 29.93 0    
Jun 09 14:53 W 16 10 Light Rain SCT037 69 45     42%     29.95 29.94 0    
Jun 09 07:53 W 8 10 Cloudy OVC012 61 57     87%     29.93 29.92      
Jun 07 19:53 W 16 10 Light Rain CLR 61 49     64%     29.9 29.9 0 0  
Jun 07 12:53 SW 6 10 Clear CLR 72 46     40%   71 29.91 29.9      
Jun 07 09:53 WNW 8 10 Clear   65 51     61%     29.91 29.9      
Jun 06 12:53 WNW 11 10 Clear CLR 78 51     39%   77 29.9 29.89      
Jun 06 10:53 NW 8 10 Clear CLR 72 52     49%   71 29.91 29.9      
Jun 06 04:53 W 5 6 Fog/Mist CLR 51 49     92%     29.9 29.89